GEFSMA_prec_meanprecacc_204.txt.gz
Total_Precipitation_Accumulation
2.02 2.05 2.01 2.03 1.88 2.07 2.43 2.54 2.42 2.62 2.67 2.49 2.28 2.02 1.89 1.73 1.60 1.61 1.70 1.58 1.46 1.54 1.80 1.90 1.76 1.64 1.51 1.32 1.16 1.10 1.07 0.99 0.95 0.81 0.67 0.63 0.73 0.72 0.61 0.53 0.49 0.42 0.39
2.44 2.49 2.34 2.28 2.14 2.16 2.39 2.52 2.54 3.05 2.96 2.82 2.36 2.09 2.01 1.95 1.79 1.77 1.83 1.90 1.59 1.44 1.57 1.86 2.01 1.97 1.84 1.62 1.43 1.29 1.18 1.09 0.98 0.77 0.64 0.59 0.67 0.75 0.72 0.64 0.54 0.44 0.35
2.54 2.61 2.59 2.45 2.37 2.34 2.49 2.54 2.74 3.01 2.76 2.64 2.35 2.22 2.10 1.98 1.80 1.78 1.97 2.14 1.90 1.61 1.45 1.57 1.88 2.04 2.07 2.05 1.92 1.65 1.36 1.17 1.04 0.82 0.65 0.61 0.65 0.74 0.74 0.73 0.68 0.51 0.37
2.53 2.64 2.48 2.37 2.58 2.66 2.74 2.90 2.98 3.01 2.89 2.79 2.58 2.26 2.09 2.03 1.64 1.59 1.65 1.73 1.88 1.65 1.71 1.80 1.94 2.00 2.17 2.29 2.29 2.22 1.91 1.49 1.23 1.03 0.84 0.73 0.75 0.77 0.72 0.70 0.68 0.54 0.41
2.38 2.55 2.43 2.51 2.67 2.78 2.81 2.59 2.99 2.99 3.00 2.91 2.41 2.15 1.89 1.78 1.66 1.40 1.38 1.31 1.45 1.49 1.57 1.67 1.81 1.79 2.09 2.45 2.61 2.71 2.59 2.15 1.68 1.40 1.27 1.09 0.98 0.86 0.77 0.72 0.68 0.59 0.47
2.50 2.67 2.52 2.59 2.70 2.83 2.86 2.87 3.07 3.04 2.88 2.85 2.26 2.01 1.76 1.43 1.44 1.38 1.21 1.21 1.23 1.13 1.23 1.46 1.77 1.50 1.83 2.20 2.40 2.73 2.96 2.79 2.33 1.93 1.78 1.63 1.47 1.20 0.95 0.85 0.80 0.74 0.61
2.66 2.89 2.73 2.87 2.84 2.71 2.71 2.87 3.05 2.87 2.64 2.76 2.67 2.09 1.56 1.26 1.24 1.20 1.23 1.29 1.21 1.19 1.34 1.65 1.77 1.64 1.52 1.59 1.66 2.00 2.60 3.02 2.95 2.51 2.17 1.94 1.88 1.74 1.30 1.13 1.05 0.96 0.83
2.60 2.54 2.65 2.54 2.59 2.72 2.71 2.75 2.95 2.77 2.38 2.53 2.64 2.50 1.84 1.54 1.23 0.98 1.17 1.21 1.21 1.37 1.43 1.51 1.76 1.94 1.79 1.86 1.46 1.44 2.04 2.73 3.10 3.06 2.64 2.29 2.15 2.04 1.70 1.55 1.35 1.12 0.99
2.25 2.27 2.29 2.38 2.65 2.66 2.66 2.73 2.73 2.59 2.27 2.25 2.39 2.54 2.05 1.64 1.33 0.96 0.92 1.08 1.33 1.47 1.43 1.56 1.65 1.84 1.90 2.10 2.06 1.76 1.69 1.89 2.47 3.11 3.10 2.75 2.35 2.06 2.06 2.09 1.88 1.47 1.16
2.16 2.12 2.10 2.17 2.26 2.25 2.33 2.16 2.25 2.38 2.41 2.21 2.28 2.22 2.07 1.91 1.78 1.33 1.04 1.02 1.21 1.32 1.41 1.39 1.42 1.55 1.80 2.19 2.33 1.98 1.67 1.50 1.73 2.50 3.03 3.06 2.69 2.32 2.26 2.36 2.51 2.18 1.60
2.12 2.06 1.99 1.98 1.90 1.89 2.02 2.01 2.11 2.15 2.14 2.10 2.13 2.21 2.17 2.07 1.94 1.81 1.49 1.31 1.23 1.06 1.12 1.23 1.33 1.43 1.67 1.95 2.12 1.96 1.89 1.66 1.60 1.79 2.19 2.58 2.69 2.57 2.43 2.52 2.86 2.94 2.55
2.00 1.92 1.88 1.89 1.82 1.80 1.86 1.91 1.97 1.93 1.97 2.04 2.03 2.06 2.12 2.04 2.01 2.06 1.74 1.57 1.44 1.13 1.12 1.10 1.16 1.25 1.49 1.66 1.59 1.69 1.67 1.50 1.38 1.42 1.58 1.92 2.16 2.29 2.37 2.56 2.94 3.27 3.29
1.60 1.58 1.58 1.67 1.67 1.71 1.72 1.77 1.81 1.81 1.91 1.98 1.94 1.97 1.96 1.87 1.89 1.99 1.97 1.68 1.53 1.27 1.30 1.24 1.14 1.20 1.20 1.48 1.48 1.34 1.17 1.09 1.05 1.07 1.08 1.23 1.47 1.66 1.85 2.10 2.46 2.83 3.10
1.29 1.41 1.55 1.61 1.64 1.67 1.64 1.75 1.65 1.64 1.78 1.85 1.85 2.09 1.97 1.76 1.82 1.94 2.07 2.08 1.84 1.53 1.51 1.37 1.21 1.16 1.18 1.30 1.28 1.17 1.05 0.95 0.89 0.84 0.81 0.82 0.90 1.03 1.19 1.42 1.70 1.93 2.13
1.30 1.38 1.47 1.59 1.63 1.73 1.78 1.80 1.68 1.75 1.94 1.90 1.96 2.10 2.00 1.88 1.92 1.91 2.07 2.25 2.19 1.88 1.59 1.43 1.31 1.15 1.15 1.17 1.21 1.18 1.13 1.00 0.85 0.78 0.73 0.70 0.70 0.72 0.81 0.96 1.13 1.30 1.40
1.39 1.35 1.38 1.42 1.43 1.48 1.60 1.66 1.62 1.75 1.95 1.91 1.88 1.94 1.93 1.92 2.09 2.04 2.09 2.21 2.29 2.17 1.71 1.50 1.41 1.17 1.29 1.07 1.11 1.11 1.11 1.04 0.84 0.73 0.69 0.67 0.66 0.67 0.68 0.72 0.81 0.95 1.10
1.36 1.32 1.28 1.27 1.27 1.23 1.29 1.42 1.46 1.63 1.66 1.64 1.56 1.59 1.58 1.75 1.92 1.89 1.98 2.05 2.16 2.22 1.84 1.63 1.72 1.59 1.63 1.44 1.29 1.18 1.02 1.02 0.91 0.82 0.74 0.67 0.64 0.64 0.67 0.67 0.66 0.72 0.83
1.19 1.24 1.27 1.19 1.13 1.17 1.23 1.26 1.34 1.49 1.55 1.52 1.49 1.53 1.44 1.54 1.67 1.70 1.84 1.90 2.02 2.22 2.01 1.86 1.94 1.97 1.92 1.75 1.63 1.45 1.11 0.93 0.95 0.97 0.82 0.71 0.65 0.63 0.68 0.68 0.64 0.62 0.65
1.10 1.16 1.19 1.14 1.09 1.16 1.28 1.37 1.48 1.50 1.39 1.36 1.36 1.33 1.30 1.41 1.44 1.53 1.66 1.66 1.74 2.04 2.12 1.96 1.97 2.26 2.18 1.98 2.01 1.70 1.46 1.37 1.01 0.97 0.86 0.71 0.65 0.62 0.62 0.69 0.70 0.65 0.62
1.14 1.18 1.20 1.25 1.30 1.31 1.29 1.33 1.38 1.46 1.44 1.31 1.18 1.08 1.07 1.20 1.25 1.36 1.43 1.54 1.66 1.83 2.02 2.04 2.00 2.18 2.25 2.13 2.28 2.03 1.77 1.61 1.33 1.06 1.00 0.79 0.70 0.68 0.66 0.66 0.69 0.71 0.72
1.08 1.18 1.33 1.38 1.41 1.34 1.19 1.25 1.33 1.28 1.32 1.27 1.12 0.96 0.86 0.87 0.93 1.07 1.08 1.27 1.50 1.67 1.75 1.89 1.95 2.06 2.27 2.32 2.16 2.10 1.95 1.79 1.67 1.53 1.50 1.11 0.84 0.74 0.71 0.69 0.71 0.79 0.86
1.11 1.18 1.19 1.25 1.27 1.08 1.04 1.03 1.07 1.11 1.15 1.14 1.14 1.11 0.95 0.84 0.80 0.82 0.86 0.93 1.06 1.20 1.40 1.63 1.72 1.83 2.05 2.28 2.27 2.29 2.20 2.00 1.84 1.70 1.84 1.81 1.47 1.20 0.99 0.77 0.76 0.81 0.91
1.14 1.13 1.08 1.08 1.10 1.18 1.07 0.94 0.91 0.95 1.06 1.11 1.15 1.13 0.91 0.78 0.83 0.81 0.84 0.84 0.87 0.86 0.93 1.16 1.32 1.38 1.61 1.93 2.26 2.33 2.41 2.27 2.05 1.99 2.12 2.18 2.23 1.99 1.46 1.12 1.05 0.91 0.94
1.22 1.16 1.04 1.03 1.05 1.04 1.05 0.97 0.96 0.90 0.94 1.01 1.08 1.10 1.09 1.02 0.93 0.95 0.97 0.92 0.80 0.77 0.79 0.80 0.88 1.09 1.27 1.54 1.92 2.11 2.40 2.56 2.40 2.31 2.36 2.42 2.43 2.64 2.14 1.60 1.41 1.18 1.11
1.25 1.28 1.18 1.16 1.17 1.15 1.11 0.95 0.93 0.89 0.96 1.01 1.07 1.08 1.07 1.01 1.00 0.98 1.00 1.00 0.89 0.85 0.84 0.84 0.83 0.95 1.14 1.27 1.56 1.90 2.17 2.34 2.42 2.49 2.55 2.62 2.55 2.70 2.97 2.51 1.80 1.42 1.18
1.38 1.39 1.38 1.35 1.39 1.41 1.41 1.21 1.09 0.98 1.01 1.06 1.17 1.16 1.03 0.93 0.99 0.96 0.89 0.96 0.96 0.97 1.02 0.98 0.96 0.98 1.04 1.19 1.45 1.71 1.96 2.20 2.23 2.30 2.18 2.18 2.20 2.33 2.74 2.95 2.59 1.98 1.50

GEFSMA_prec_meanprecacc_210.txt.gz
Total_Precipitation_Accumulation
2.04 2.07 2.04 2.06 1.90 2.08 2.44 2.55 2.42 2.63 2.70 2.51 2.29 2.05 1.91 1.75 1.62 1.64 1.72 1.62 1.49 1.56 1.82 1.92 1.77 1.65 1.51 1.33 1.18 1.11 1.08 1.00 0.96 0.82 0.69 0.65 0.74 0.72 0.61 0.55 0.50 0.42 0.40
2.46 2.52 2.38 2.33 2.18 2.19 2.41 2.54 2.55 3.06 2.99 2.85 2.38 2.11 2.03 1.98 1.82 1.80 1.86 1.93 1.64 1.48 1.60 1.89 2.04 1.99 1.85 1.63 1.44 1.31 1.19 1.10 1.00 0.78 0.65 0.60 0.68 0.76 0.72 0.66 0.56 0.45 0.35
2.55 2.63 2.62 2.50 2.41 2.35 2.51 2.56 2.77 3.04 2.79 2.67 2.38 2.25 2.14 2.01 1.84 1.82 2.00 2.17 1.94 1.66 1.53 1.64 1.95 2.09 2.10 2.08 1.94 1.66 1.37 1.17 1.05 0.83 0.66 0.61 0.66 0.75 0.74 0.74 0.69 0.52 0.37
2.55 2.66 2.50 2.39 2.60 2.68 2.76 2.93 3.03 3.06 2.93 2.83 2.61 2.29 2.12 2.06 1.67 1.64 1.69 1.77 1.92 1.67 1.77 1.90 2.05 2.09 2.23 2.34 2.34 2.26 1.94 1.50 1.24 1.04 0.85 0.73 0.75 0.78 0.73 0.71 0.69 0.56 0.42
2.39 2.57 2.46 2.53 2.71 2.81 2.86 2.64 3.05 3.03 3.03 2.93 2.43 2.17 1.92 1.81 1.68 1.44 1.42 1.36 1.49 1.53 1.60 1.71 1.90 1.89 2.17 2.52 2.67 2.76 2.63 2.18 1.70 1.41 1.29 1.11 0.99 0.87 0.77 0.73 0.69 0.61 0.48
2.52 2.71 2.55 2.62 2.74 2.89 2.91 2.91 3.10 3.07 2.90 2.86 2.28 2.02 1.78 1.45 1.45 1.41 1.24 1.24 1.27 1.17 1.27 1.49 1.83 1.57 1.90 2.27 2.47 2.80 3.03 2.86 2.38 1.97 1.82 1.69 1.51 1.24 0.98 0.87 0.82 0.76 0.65
2.70 2.93 2.77 2.91 2.89 2.76 2.77 2.92 3.10 2.91 2.68 2.79 2.69 2.11 1.57 1.26 1.25 1.20 1.24 1.33 1.25 1.24 1.40 1.70 1.81 1.67 1.55 1.64 1.71 2.08 2.69 3.12 3.04 2.60 2.24 2.01 1.94 1.81 1.36 1.19 1.09 1.00 0.89
2.66 2.60 2.72 2.61 2.65 2.77 2.75 2.80 3.00 2.82 2.42 2.56 2.67 2.53 1.86 1.56 1.23 0.98 1.19 1.24 1.25 1.43 1.49 1.57 1.80 1.97 1.83 1.89 1.50 1.49 2.11 2.82 3.21 3.17 2.73 2.36 2.22 2.09 1.75 1.60 1.39 1.16 1.04
2.30 2.34 2.37 2.45 2.70 2.70 2.69 2.78 2.78 2.64 2.30 2.29 2.43 2.58 2.07 1.65 1.34 0.98 0.95 1.12 1.38 1.53 1.49 1.63 1.70 1.87 1.94 2.13 2.09 1.79 1.73 1.95 2.54 3.20 3.19 2.84 2.43 2.13 2.12 2.15 1.93 1.52 1.22
2.21 2.18 2.18 2.24 2.31 2.29 2.37 2.20 2.29 2.42 2.45 2.26 2.33 2.27 2.12 1.94 1.80 1.35 1.06 1.05 1.26 1.37 1.47 1.45 1.48 1.60 1.86 2.24 2.37 2.02 1.70 1.54 1.76 2.56 3.12 3.16 2.79 2.40 2.33 2.44 2.58 2.24 1.66
2.16 2.12 2.07 2.06 1.98 1.95 2.06 2.04 2.15 2.20 2.19 2.16 2.19 2.26 2.23 2.12 1.97 1.84 1.51 1.33 1.27 1.10 1.18 1.29 1.38 1.48 1.73 2.01 2.19 2.04 1.94 1.71 1.65 1.84 2.25 2.66 2.77 2.66 2.51 2.61 2.96 3.04 2.64
2.04 1.98 1.95 1.96 1.88 1.87 1.92 1.96 2.02 1.99 2.03 2.09 2.08 2.11 2.17 2.09 2.07 2.11 1.77 1.59 1.46 1.16 1.15 1.13 1.20 1.29 1.54 1.73 1.65 1.75 1.73 1.57 1.46 1.50 1.65 1.99 2.25 2.38 2.47 2.69 3.08 3.43 3.46
1.66 1.66 1.64 1.71 1.70 1.75 1.78 1.84 1.86 1.87 1.97 2.05 2.01 2.01 1.99 1.92 1.95 2.04 2.00 1.70 1.55 1.29 1.33 1.27 1.18 1.25 1.26 1.55 1.55 1.41 1.24 1.19 1.14 1.16 1.17 1.32 1.55 1.74 1.94 2.21 2.58 2.96 3.24
1.41 1.53 1.64 1.67 1.69 1.71 1.71 1.83 1.73 1.72 1.86 1.92 1.91 2.15 2.01 1.81 1.88 1.99 2.12 2.14 1.89 1.55 1.54 1.39 1.25 1.21 1.24 1.35 1.33 1.25 1.15 1.05 0.97 0.93 0.90 0.92 0.98 1.11 1.27 1.50 1.77 1.99 2.21
1.45 1.53 1.59 1.67 1.70 1.78 1.84 1.87 1.75 1.85 2.02 1.94 2.02 2.17 2.05 1.94 1.98 1.97 2.13 2.33 2.27 1.94 1.62 1.46 1.36 1.20 1.21 1.20 1.25 1.23 1.18 1.07 0.94 0.87 0.82 0.78 0.78 0.81 0.89 1.03 1.19 1.35 1.44
1.47 1.42 1.43 1.48 1.48 1.54 1.66 1.73 1.68 1.81 2.00 1.96 1.94 2.02 1.99 1.98 2.16 2.12 2.17 2.29 2.38 2.24 1.75 1.54 1.46 1.23 1.34 1.11 1.16 1.15 1.15 1.09 0.92 0.82 0.79 0.76 0.75 0.75 0.76 0.79 0.88 1.00 1.14
1.43 1.37 1.33 1.33 1.33 1.29 1.35 1.47 1.50 1.69 1.71 1.70 1.62 1.66 1.64 1.82 2.00 1.95 2.05 2.12 2.24 2.32 1.90 1.67 1.76 1.64 1.66 1.48 1.34 1.23 1.07 1.07 0.97 0.91 0.83 0.76 0.73 0.72 0.75 0.74 0.72 0.77 0.87
1.25 1.30 1.36 1.27 1.18 1.23 1.30 1.31 1.39 1.55 1.61 1.58 1.56 1.60 1.50 1.62 1.74 1.77 1.92 2.00 2.13 2.32 2.08 1.90 1.97 2.01 1.95 1.78 1.66 1.48 1.15 0.98 0.99 1.03 0.89 0.78 0.73 0.72 0.77 0.76 0.71 0.68 0.71
1.18 1.24 1.29 1.23 1.19 1.26 1.36 1.43 1.52 1.55 1.44 1.42 1.43 1.40 1.38 1.50 1.54 1.65 1.80 1.79 1.84 2.13 2.19 2.00 1.99 2.28 2.20 2.01 2.03 1.73 1.50 1.42 1.06 1.04 0.94 0.79 0.73 0.70 0.71 0.78 0.79 0.74 0.71
1.23 1.28 1.29 1.35 1.40 1.38 1.34 1.37 1.43 1.51 1.50 1.37 1.24 1.17 1.20 1.34 1.37 1.47 1.53 1.60 1.71 1.89 2.07 2.08 2.02 2.20 2.27 2.15 2.30 2.06 1.81 1.65 1.39 1.14 1.11 0.91 0.83 0.80 0.77 0.77 0.78 0.79 0.80
1.17 1.28 1.42 1.46 1.50 1.40 1.24 1.30 1.37 1.31 1.36 1.30 1.18 1.05 0.97 0.97 1.01 1.15 1.15 1.32 1.55 1.72 1.80 1.93 1.99 2.09 2.30 2.35 2.18 2.13 1.98 1.83 1.73 1.60 1.59 1.21 0.94 0.84 0.84 0.82 0.82 0.87 0.93
1.18 1.28 1.29 1.32 1.32 1.12 1.08 1.07 1.10 1.14 1.17 1.17 1.19 1.17 1.02 0.92 0.88 0.91 0.94 1.00 1.14 1.28 1.47 1.70 1.79 1.88 2.10 2.32 2.32 2.35 2.27 2.07 1.91 1.78 1.93 1.90 1.57 1.31 1.10 0.88 0.88 0.92 1.00
1.22 1.19 1.15 1.17 1.19 1.27 1.15 1.00 0.96 0.98 1.09 1.13 1.18 1.17 0.96 0.85 0.91 0.89 0.93 0.94 0.98 0.99 1.05 1.26 1.39 1.44 1.66 1.99 2.33 2.41 2.49 2.36 2.14 2.09 2.23 2.30 2.36 2.12 1.57 1.22 1.16 1.01 1.04
1.27 1.21 1.09 1.09 1.12 1.15 1.14 1.04 1.01 0.94 0.97 1.05 1.12 1.15 1.14 1.07 1.01 1.04 1.07 1.02 0.91 0.89 0.91 0.88 0.95 1.14 1.32 1.58 1.98 2.18 2.48 2.65 2.49 2.41 2.47 2.55 2.57 2.79 2.30 1.74 1.55 1.31 1.25
1.30 1.31 1.20 1.18 1.19 1.20 1.18 1.03 1.00 0.94 1.00 1.06 1.13 1.14 1.12 1.06 1.06 1.04 1.06 1.09 0.98 0.92 0.89 0.88 0.86 0.97 1.17 1.31 1.60 1.94 2.21 2.39 2.47 2.56 2.64 2.71 2.63 2.77 3.06 2.61 1.91 1.55 1.31
1.42 1.42 1.40 1.37 1.41 1.45 1.48 1.29 1.16 1.03 1.05 1.11 1.22 1.22 1.11 0.98 1.04 1.00 0.92 0.99 0.99 0.98 1.03 1.00 0.98 1.01 1.08 1.23 1.49 1.74 1.99 2.24 2.29 2.37 2.25 2.23 2.25 2.38 2.81 3.01 2.65 2.04 1.58

GEFSMA_prec_meanprecacc_216.txt.gz
Total_Precipitation_Accumulation
2.09 2.11 2.09 2.12 1.94 2.13 2.48 2.59 2.47 2.67 2.75 2.55 2.33 2.07 1.93 1.77 1.65 1.67 1.76 1.67 1.54 1.60 1.86 1.95 1.80 1.67 1.54 1.36 1.20 1.12 1.09 1.00 0.96 0.83 0.70 0.66 0.74 0.72 0.62 0.56 0.50 0.43 0.40
2.51 2.58 2.42 2.38 2.22 2.23 2.45 2.59 2.61 3.13 3.07 2.93 2.46 2.17 2.08 2.01 1.84 1.83 1.89 1.97 1.68 1.52 1.64 1.94 2.09 2.02 1.88 1.66 1.47 1.32 1.20 1.12 1.01 0.78 0.65 0.61 0.69 0.77 0.73 0.67 0.57 0.46 0.36
2.63 2.72 2.69 2.55 2.45 2.40 2.58 2.64 2.85 3.12 2.87 2.75 2.46 2.31 2.18 2.05 1.85 1.84 2.02 2.21 1.98 1.70 1.56 1.70 2.01 2.15 2.16 2.12 1.99 1.69 1.39 1.19 1.07 0.84 0.67 0.62 0.67 0.76 0.75 0.74 0.70 0.53 0.38
2.63 2.75 2.58 2.45 2.65 2.72 2.83 3.01 3.11 3.13 3.00 2.91 2.68 2.33 2.16 2.10 1.69 1.66 1.71 1.81 1.96 1.71 1.81 1.94 2.10 2.17 2.31 2.42 2.42 2.34 1.99 1.54 1.27 1.07 0.87 0.75 0.76 0.79 0.74 0.72 0.70 0.56 0.42
2.46 2.66 2.55 2.63 2.78 2.88 2.93 2.69 3.09 3.09 3.09 3.01 2.48 2.22 1.96 1.84 1.70 1.46 1.44 1.37 1.51 1.55 1.63 1.75 1.94 1.95 2.24 2.62 2.78 2.85 2.71 2.24 1.75 1.46 1.33 1.14 1.03 0.92 0.81 0.75 0.71 0.62 0.49
2.59 2.78 2.62 2.71 2.82 2.97 3.00 2.98 3.17 3.14 2.97 2.94 2.31 2.06 1.83 1.48 1.48 1.44 1.26 1.26 1.28 1.19 1.29 1.52 1.87 1.61 1.95 2.33 2.55 2.88 3.13 2.96 2.48 2.05 1.87 1.72 1.55 1.29 1.02 0.91 0.86 0.80 0.67
2.76 3.00 2.82 2.98 2.96 2.83 2.85 2.99 3.17 2.99 2.76 2.85 2.75 2.17 1.62 1.29 1.28 1.25 1.30 1.38 1.28 1.27 1.42 1.73 1.86 1.73 1.60 1.67 1.75 2.13 2.77 3.22 3.15 2.69 2.32 2.07 1.99 1.85 1.40 1.23 1.14 1.04 0.93
2.72 2.64 2.78 2.67 2.72 2.86 2.83 2.87 3.07 2.89 2.50 2.63 2.75 2.59 1.93 1.63 1.28 1.00 1.21 1.28 1.29 1.47 1.52 1.59 1.84 2.03 1.89 1.97 1.57 1.54 2.17 2.90 3.32 3.28 2.84 2.48 2.31 2.17 1.82 1.66 1.45 1.22 1.09
2.34 2.39 2.43 2.51 2.76 2.78 2.78 2.86 2.85 2.70 2.39 2.36 2.50 2.65 2.14 1.74 1.40 1.01 0.97 1.16 1.43 1.58 1.54 1.67 1.75 1.93 2.00 2.20 2.16 1.86 1.77 1.99 2.62 3.29 3.30 2.95 2.53 2.21 2.19 2.22 2.00 1.58 1.29
2.28 2.25 2.26 2.31 2.38 2.37 2.46 2.26 2.35 2.50 2.55 2.35 2.42 2.35 2.19 2.01 1.87 1.41 1.10 1.08 1.30 1.43 1.55 1.53 1.54 1.66 1.93 2.32 2.45 2.09 1.75 1.58 1.81 2.63 3.22 3.28 2.90 2.50 2.41 2.50 2.65 2.32 1.75
2.25 2.19 2.16 2.14 2.05 2.01 2.13 2.11 2.23 2.27 2.27 2.24 2.29 2.35 2.31 2.20 2.05 1.92 1.60 1.40 1.32 1.16 1.27 1.37 1.45 1.55 1.78 2.08 2.27 2.10 2.01 1.77 1.71 1.91 2.35 2.77 2.87 2.75 2.59 2.69 3.04 3.14 2.75
2.12 2.04 2.00 2.01 1.92 1.91 1.97 2.04 2.11 2.06 2.10 2.17 2.19 2.21 2.26 2.17 2.16 2.21 1.87 1.68 1.54 1.22 1.20 1.18 1.25 1.35 1.60 1.80 1.71 1.80 1.78 1.63 1.53 1.57 1.74 2.08 2.33 2.46 2.54 2.76 3.18 3.56 3.59
1.72 1.73 1.70 1.77 1.76 1.81 1.84 1.90 1.95 1.96 2.05 2.13 2.10 2.11 2.10 2.03 2.09 2.17 2.11 1.81 1.64 1.37 1.39 1.31 1.21 1.27 1.28 1.59 1.61 1.46 1.27 1.24 1.19 1.22 1.24 1.39 1.63 1.81 2.01 2.28 2.66 3.05 3.35
1.46 1.58 1.72 1.76 1.77 1.78 1.78 1.91 1.80 1.81 1.96 2.01 2.00 2.26 2.12 1.92 2.01 2.09 2.21 2.26 1.99 1.64 1.61 1.47 1.31 1.26 1.29 1.39 1.38 1.29 1.17 1.09 1.02 0.98 0.96 0.98 1.04 1.17 1.34 1.56 1.84 2.08 2.30
1.51 1.59 1.68 1.76 1.79 1.87 1.92 1.94 1.82 1.93 2.11 2.02 2.10 2.27 2.17 2.04 2.05 2.05 2.22 2.42 2.37 2.03 1.71 1.55 1.44 1.26 1.26 1.26 1.31 1.28 1.22 1.12 0.99 0.92 0.88 0.84 0.83 0.86 0.95 1.09 1.26 1.43 1.53
1.53 1.47 1.49 1.55 1.56 1.62 1.74 1.81 1.76 1.88 2.09 2.03 2.01 2.09 2.07 2.05 2.22 2.18 2.24 2.36 2.47 2.33 1.84 1.62 1.54 1.29 1.40 1.16 1.22 1.21 1.21 1.15 0.97 0.88 0.84 0.82 0.81 0.82 0.83 0.87 0.96 1.08 1.21
1.48 1.41 1.38 1.38 1.38 1.35 1.41 1.55 1.57 1.76 1.78 1.75 1.68 1.73 1.72 1.91 2.08 2.03 2.13 2.20 2.32 2.41 2.00 1.77 1.85 1.72 1.73 1.54 1.39 1.29 1.12 1.12 1.02 0.96 0.88 0.81 0.79 0.79 0.82 0.82 0.80 0.85 0.93
1.29 1.34 1.40 1.31 1.22 1.28 1.37 1.39 1.46 1.61 1.67 1.66 1.65 1.69 1.60 1.73 1.83 1.85 2.01 2.09 2.24 2.47 2.26 2.06 2.10 2.11 2.03 1.84 1.71 1.53 1.19 1.02 1.03 1.07 0.93 0.82 0.77 0.77 0.82 0.83 0.79 0.77 0.79
1.21 1.28 1.32 1.28 1.24 1.32 1.46 1.54 1.62 1.65 1.54 1.51 1.51 1.49 1.46 1.59 1.63 1.74 1.89 1.89 1.98 2.27 2.31 2.10 2.06 2.33 2.24 2.04 2.08 1.78 1.54 1.47 1.09 1.07 0.97 0.82 0.77 0.75 0.77 0.85 0.87 0.83 0.79
1.27 1.32 1.35 1.43 1.46 1.45 1.42 1.45 1.49 1.57 1.56 1.41 1.28 1.20 1.24 1.39 1.44 1.55 1.60 1.69 1.80 1.97 2.16 2.15 2.07 2.24 2.31 2.19 2.35 2.11 1.87 1.72 1.44 1.18 1.17 0.96 0.88 0.85 0.83 0.83 0.86 0.88 0.89
1.21 1.34 1.49 1.58 1.59 1.50 1.34 1.35 1.40 1.34 1.38 1.32 1.20 1.07 0.99 1.01 1.06 1.20 1.20 1.38 1.62 1.78 1.87 2.00 2.05 2.15 2.35 2.41 2.26 2.21 2.07 1.92 1.81 1.69 1.67 1.28 1.00 0.89 0.88 0.88 0.90 0.95 0.99
1.21 1.34 1.38 1.42 1.40 1.23 1.23 1.15 1.14 1.17 1.20 1.21 1.22 1.20 1.05 0.95 0.92 0.95 0.99 1.05 1.18 1.33 1.53 1.77 1.85 1.95 2.17 2.40 2.40 2.44 2.37 2.19 2.01 1.85 2.00 1.97 1.63 1.36 1.17 0.96 0.95 0.98 1.06
1.27 1.27 1.25 1.24 1.25 1.35 1.24 1.07 1.02 1.04 1.14 1.18 1.22 1.21 1.01 0.89 0.95 0.92 0.97 0.98 1.02 1.04 1.11 1.33 1.47 1.51 1.72 2.04 2.39 2.47 2.55 2.42 2.20 2.15 2.30 2.38 2.44 2.21 1.65 1.30 1.23 1.08 1.11
1.33 1.28 1.15 1.14 1.17 1.21 1.21 1.10 1.08 0.99 1.03 1.11 1.17 1.19 1.19 1.14 1.06 1.07 1.09 1.05 0.96 0.95 0.96 0.93 0.99 1.18 1.35 1.61 2.00 2.20 2.51 2.69 2.54 2.46 2.54 2.61 2.63 2.85 2.36 1.82 1.63 1.39 1.31
1.34 1.37 1.26 1.22 1.22 1.24 1.22 1.09 1.05 0.97 1.05 1.12 1.19 1.19 1.17 1.12 1.13 1.09 1.10 1.11 1.01 0.94 0.92 0.91 0.88 0.99 1.18 1.32 1.61 1.96 2.24 2.43 2.52 2.60 2.67 2.73 2.65 2.80 3.09 2.64 1.95 1.59 1.37
1.49 1.52 1.47 1.41 1.45 1.48 1.50 1.32 1.20 1.06 1.09 1.15 1.27 1.26 1.14 1.02 1.08 1.03 0.94 1.01 1.00 1.00 1.05 1.01 1.00 1.02 1.08 1.24 1.49 1.76 2.01 2.26 2.31 2.39 2.26 2.25 2.26 2.40 2.83 3.03 2.67 2.06 1.60

GEFSMA_prec_meanprecacc_222.txt.gz
Total_Precipitation_Accumulation
2.21 2.25 2.22 2.24 2.03 2.19 2.54 2.64 2.50 2.70 2.77 2.57 2.34 2.08 1.95 1.80 1.68 1.70 1.81 1.71 1.57 1.62 1.89 2.00 1.84 1.70 1.56 1.38 1.22 1.14 1.10 1.01 0.97 0.84 0.70 0.67 0.76 0.73 0.62 0.56 0.50 0.43 0.41
2.59 2.68 2.52 2.48 2.30 2.29 2.52 2.65 2.65 3.18 3.12 2.96 2.47 2.18 2.09 2.02 1.85 1.86 1.94 2.02 1.72 1.55 1.68 1.99 2.13 2.06 1.92 1.70 1.50 1.35 1.22 1.13 1.03 0.80 0.67 0.62 0.71 0.78 0.73 0.68 0.58 0.46 0.36
2.66 2.77 2.76 2.63 2.52 2.45 2.64 2.70 2.89 3.16 2.91 2.78 2.49 2.33 2.20 2.07 1.86 1.85 2.05 2.25 2.02 1.73 1.60 1.73 2.05 2.20 2.21 2.17 2.03 1.74 1.43 1.22 1.10 0.88 0.70 0.64 0.68 0.77 0.76 0.75 0.71 0.54 0.38
2.66 2.81 2.63 2.50 2.70 2.77 2.89 3.09 3.17 3.19 3.06 2.96 2.73 2.36 2.19 2.15 1.72 1.68 1.75 1.86 2.01 1.74 1.84 1.96 2.14 2.21 2.35 2.47 2.47 2.39 2.04 1.58 1.31 1.10 0.90 0.78 0.79 0.81 0.76 0.73 0.71 0.57 0.43
2.51 2.72 2.61 2.68 2.82 2.92 2.98 2.74 3.17 3.18 3.18 3.07 2.52 2.27 1.99 1.89 1.74 1.48 1.46 1.40 1.55 1.59 1.68 1.78 1.96 1.97 2.27 2.65 2.82 2.90 2.76 2.29 1.80 1.49 1.35 1.17 1.06 0.95 0.83 0.77 0.72 0.63 0.50
2.64 2.85 2.72 2.78 2.89 3.04 3.07 3.05 3.26 3.22 3.04 3.01 2.34 2.12 1.88 1.53 1.52 1.48 1.28 1.27 1.34 1.25 1.34 1.56 1.93 1.66 1.99 2.38 2.59 2.93 3.18 3.01 2.52 2.08 1.91 1.75 1.57 1.31 1.04 0.94 0.88 0.81 0.69
2.81 3.07 2.91 3.08 3.05 2.91 2.92 3.06 3.26 3.08 2.85 2.92 2.83 2.26 1.69 1.35 1.36 1.29 1.33 1.40 1.30 1.31 1.46 1.79 1.96 1.86 1.72 1.77 1.81 2.17 2.82 3.28 3.21 2.75 2.38 2.12 2.03 1.88 1.44 1.27 1.18 1.08 0.96
2.76 2.71 2.89 2.77 2.82 2.97 2.94 2.96 3.17 2.99 2.60 2.71 2.87 2.75 2.07 1.77 1.39 1.05 1.27 1.32 1.33 1.52 1.57 1.65 1.95 2.18 2.03 2.17 1.70 1.63 2.25 2.98 3.39 3.37 2.93 2.57 2.38 2.23 1.88 1.73 1.51 1.27 1.14
2.38 2.46 2.52 2.61 2.89 2.89 2.91 2.99 2.96 2.82 2.52 2.47 2.60 2.77 2.29 1.91 1.54 1.10 1.03 1.20 1.49 1.67 1.59 1.73 1.85 2.05 2.15 2.41 2.35 2.01 1.89 2.07 2.70 3.38 3.40 3.05 2.61 2.27 2.24 2.28 2.07 1.64 1.34
2.33 2.31 2.34 2.41 2.49 2.48 2.58 2.35 2.45 2.62 2.69 2.47 2.52 2.45 2.29 2.13 2.03 1.59 1.24 1.17 1.39 1.50 1.61 1.60 1.64 1.77 2.07 2.50 2.65 2.24 1.89 1.67 1.89 2.72 3.33 3.40 3.01 2.59 2.50 2.58 2.72 2.41 1.84
2.35 2.26 2.25 2.26 2.17 2.12 2.23 2.21 2.37 2.39 2.38 2.35 2.38 2.44 2.43 2.33 2.18 2.07 1.77 1.58 1.50 1.26 1.32 1.45 1.53 1.64 1.89 2.25 2.44 2.23 2.16 1.89 1.79 1.97 2.41 2.85 2.98 2.86 2.70 2.80 3.13 3.23 2.85
2.22 2.14 2.11 2.13 2.03 2.02 2.09 2.16 2.24 2.18 2.20 2.28 2.30 2.31 2.39 2.29 2.29 2.35 2.01 1.85 1.71 1.32 1.28 1.25 1.32 1.45 1.73 1.94 1.83 1.91 1.87 1.72 1.61 1.64 1.78 2.12 2.40 2.55 2.65 2.89 3.30 3.68 3.71
1.85 1.87 1.80 1.88 1.88 1.92 1.95 2.03 2.08 2.07 2.17 2.26 2.21 2.23 2.21 2.13 2.20 2.29 2.23 1.94 1.77 1.49 1.49 1.39 1.30 1.40 1.42 1.71 1.71 1.56 1.36 1.32 1.26 1.28 1.29 1.45 1.69 1.88 2.10 2.38 2.79 3.20 3.50
1.55 1.68 1.81 1.86 1.85 1.86 1.87 2.04 1.92 1.91 2.07 2.12 2.08 2.37 2.22 2.02 2.10 2.19 2.31 2.38 2.11 1.75 1.73 1.59 1.45 1.39 1.41 1.48 1.47 1.39 1.24 1.17 1.08 1.04 1.02 1.03 1.09 1.23 1.41 1.65 1.94 2.17 2.41
1.57 1.65 1.73 1.83 1.86 1.95 2.01 2.06 1.92 2.03 2.24 2.14 2.21 2.39 2.26 2.14 2.15 2.14 2.31 2.53 2.50 2.17 1.84 1.68 1.57 1.40 1.40 1.37 1.40 1.36 1.30 1.20 1.05 0.97 0.93 0.89 0.88 0.91 0.99 1.13 1.31 1.48 1.59
1.59 1.53 1.55 1.61 1.62 1.68 1.82 1.93 1.87 1.99 2.21 2.16 2.13 2.21 2.19 2.16 2.34 2.30 2.35 2.49 2.61 2.49 1.97 1.75 1.67 1.40 1.51 1.24 1.28 1.26 1.26 1.22 1.04 0.92 0.88 0.86 0.85 0.86 0.87 0.92 1.01 1.14 1.28
1.57 1.51 1.48 1.46 1.44 1.41 1.50 1.66 1.67 1.86 1.89 1.86 1.79 1.86 1.85 2.05 2.21 2.17 2.26 2.33 2.46 2.55 2.15 1.89 1.97 1.80 1.80 1.61 1.46 1.34 1.18 1.20 1.08 1.02 0.93 0.86 0.83 0.83 0.86 0.86 0.85 0.90 1.00
1.43 1.47 1.50 1.39 1.28 1.34 1.44 1.46 1.53 1.73 1.79 1.77 1.78 1.83 1.74 1.89 2.00 2.02 2.15 2.22 2.38 2.61 2.41 2.18 2.19 2.17 2.09 1.91 1.77 1.59 1.24 1.07 1.09 1.15 1.00 0.89 0.84 0.83 0.88 0.89 0.84 0.81 0.83
1.30 1.35 1.40 1.34 1.29 1.38 1.52 1.61 1.70 1.74 1.65 1.64 1.62 1.57 1.55 1.70 1.74 1.86 2.00 2.00 2.09 2.39 2.45 2.21 2.14 2.39 2.29 2.08 2.12 1.82 1.60 1.54 1.14 1.12 1.05 0.90 0.84 0.81 0.84 0.90 0.91 0.86 0.83
1.32 1.39 1.42 1.50 1.54 1.53 1.49 1.50 1.56 1.66 1.66 1.51 1.35 1.25 1.28 1.43 1.49 1.60 1.65 1.75 1.88 2.06 2.25 2.22 2.13 2.30 2.36 2.24 2.41 2.19 1.99 1.82 1.51 1.24 1.23 1.03 0.94 0.91 0.89 0.88 0.90 0.93 0.94
1.27 1.41 1.56 1.66 1.68 1.58 1.40 1.42 1.49 1.42 1.45 1.39 1.25 1.11 1.02 1.04 1.10 1.24 1.23 1.43 1.67 1.84 1.92 2.05 2.10 2.20 2.41 2.48 2.33 2.31 2.19 2.02 1.88 1.74 1.72 1.33 1.06 0.95 0.94 0.94 0.96 0.99 1.03
1.26 1.40 1.45 1.50 1.48 1.30 1.33 1.22 1.19 1.22 1.26 1.27 1.28 1.24 1.09 0.98 0.95 0.98 1.01 1.07 1.22 1.38 1.59 1.83 1.91 2.00 2.22 2.47 2.50 2.54 2.47 2.27 2.06 1.91 2.05 2.01 1.67 1.41 1.21 1.00 0.99 1.02 1.10
1.32 1.33 1.31 1.33 1.35 1.44 1.31 1.11 1.05 1.06 1.18 1.23 1.27 1.25 1.04 0.92 0.97 0.94 0.99 1.00 1.05 1.08 1.15 1.38 1.53 1.57 1.80 2.11 2.45 2.51 2.59 2.45 2.22 2.19 2.33 2.40 2.47 2.24 1.68 1.33 1.26 1.11 1.14
1.37 1.35 1.23 1.22 1.25 1.26 1.23 1.11 1.09 1.01 1.06 1.13 1.19 1.22 1.22 1.16 1.07 1.09 1.11 1.07 0.98 0.98 1.00 0.97 1.03 1.23 1.40 1.65 2.02 2.22 2.53 2.71 2.56 2.48 2.56 2.63 2.65 2.86 2.37 1.83 1.65 1.40 1.33
1.37 1.42 1.32 1.27 1.28 1.27 1.24 1.09 1.05 0.99 1.07 1.15 1.22 1.22 1.20 1.14 1.15 1.12 1.12 1.12 1.02 0.95 0.93 0.92 0.90 1.00 1.18 1.32 1.62 1.97 2.26 2.45 2.54 2.62 2.69 2.75 2.67 2.81 3.10 2.64 1.96 1.60 1.38
1.54 1.57 1.51 1.45 1.48 1.51 1.53 1.33 1.22 1.08 1.13 1.20 1.32 1.30 1.17 1.04 1.11 1.05 0.96 1.02 1.01 1.02 1.07 1.03 1.01 1.03 1.10 1.25 1.50 1.77 2.03 2.28 2.32 2.41 2.28 2.26 2.28 2.42 2.84 3.05 2.68 2.07 1.61

GEFSMA_prec_meanprecacc_228.txt.gz
Total_Precipitation_Accumulation
2.26 2.32 2.29 2.31 2.12 2.28 2.60 2.69 2.54 2.74 2.82 2.62 2.39 2.12 2.00 1.85 1.74 1.75 1.85 1.74 1.60 1.66 1.95 2.06 1.90 1.75 1.60 1.41 1.25 1.17 1.12 1.03 0.99 0.85 0.71 0.69 0.77 0.74 0.63 0.57 0.52 0.44 0.42
2.65 2.75 2.59 2.55 2.38 2.35 2.56 2.68 2.69 3.22 3.16 3.01 2.52 2.22 2.13 2.06 1.90 1.94 2.00 2.06 1.75 1.59 1.74 2.06 2.20 2.14 1.98 1.76 1.55 1.41 1.28 1.18 1.06 0.83 0.70 0.66 0.74 0.81 0.76 0.70 0.60 0.48 0.38
2.73 2.83 2.81 2.68 2.56 2.49 2.67 2.73 2.93 3.20 2.95 2.82 2.54 2.36 2.24 2.10 1.90 1.90 2.13 2.32 2.06 1.77 1.66 1.79 2.12 2.28 2.28 2.24 2.10 1.80 1.49 1.28 1.15 0.93 0.75 0.68 0.71 0.80 0.78 0.78 0.73 0.55 0.39
2.71 2.86 2.68 2.54 2.73 2.79 2.93 3.13 3.20 3.21 3.10 2.99 2.77 2.41 2.23 2.19 1.75 1.71 1.81 1.96 2.09 1.80 1.89 2.03 2.20 2.27 2.43 2.54 2.54 2.45 2.10 1.64 1.37 1.16 0.95 0.81 0.82 0.85 0.79 0.76 0.73 0.59 0.44
2.55 2.76 2.67 2.73 2.86 2.95 3.02 2.77 3.22 3.22 3.21 3.09 2.56 2.32 2.04 1.94 1.81 1.54 1.52 1.51 1.65 1.68 1.73 1.85 2.05 2.03 2.37 2.75 2.91 2.99 2.86 2.36 1.84 1.54 1.40 1.21 1.10 0.99 0.86 0.79 0.74 0.64 0.51
2.69 2.89 2.80 2.84 2.93 3.08 3.12 3.11 3.33 3.28 3.08 3.04 2.38 2.17 1.93 1.58 1.58 1.52 1.33 1.34 1.42 1.35 1.43 1.70 2.02 1.72 2.07 2.48 2.70 3.01 3.27 3.11 2.59 2.13 1.95 1.80 1.62 1.35 1.08 0.97 0.91 0.83 0.70
2.87 3.13 2.98 3.14 3.11 2.97 2.98 3.13 3.33 3.13 2.90 2.98 2.88 2.31 1.75 1.43 1.44 1.35 1.41 1.50 1.40 1.40 1.60 1.93 2.11 1.97 1.79 1.85 1.89 2.26 2.92 3.39 3.30 2.82 2.46 2.19 2.08 1.93 1.48 1.32 1.23 1.13 1.00
2.81 2.77 2.97 2.86 2.91 3.04 2.99 3.03 3.26 3.05 2.64 2.77 2.94 2.81 2.11 1.82 1.45 1.11 1.36 1.43 1.47 1.66 1.74 1.82 2.14 2.32 2.15 2.27 1.78 1.71 2.34 3.09 3.51 3.46 3.03 2.66 2.45 2.29 1.95 1.80 1.59 1.34 1.20
2.45 2.53 2.60 2.68 2.96 2.97 2.98 3.05 3.03 2.89 2.59 2.53 2.66 2.84 2.34 1.94 1.58 1.16 1.10 1.35 1.68 1.83 1.74 1.85 1.98 2.18 2.34 2.60 2.48 2.10 1.98 2.18 2.84 3.52 3.53 3.18 2.71 2.36 2.32 2.38 2.17 1.73 1.41
2.40 2.40 2.42 2.47 2.55 2.54 2.64 2.41 2.52 2.72 2.83 2.53 2.57 2.49 2.34 2.19 2.08 1.65 1.33 1.30 1.56 1.72 1.83 1.75 1.76 1.95 2.30 2.74 2.85 2.40 2.00 1.76 1.99 2.84 3.45 3.53 3.14 2.70 2.59 2.67 2.83 2.51 1.92
2.43 2.40 2.37 2.35 2.23 2.17 2.30 2.29 2.43 2.47 2.47 2.41 2.43 2.48 2.48 2.39 2.24 2.12 1.83 1.69 1.66 1.46 1.52 1.58 1.64 1.76 2.04 2.46 2.68 2.38 2.27 2.02 1.91 2.06 2.49 2.94 3.08 2.96 2.81 2.91 3.25 3.33 2.95
2.30 2.26 2.23 2.22 2.09 2.08 2.15 2.21 2.30 2.25 2.27 2.35 2.34 2.35 2.44 2.38 2.38 2.43 2.07 1.91 1.79 1.41 1.36 1.33 1.41 1.56 1.91 2.21 2.04 2.06 2.02 1.87 1.75 1.76 1.85 2.19 2.48 2.65 2.76 3.01 3.45 3.83 3.87
1.88 1.96 1.89 1.96 1.95 1.98 2.01 2.09 2.17 2.14 2.22 2.32 2.25 2.27 2.27 2.19 2.27 2.38 2.31 2.01 1.83 1.53 1.54 1.45 1.39 1.54 1.63 1.97 1.91 1.74 1.52 1.45 1.35 1.36 1.36 1.52 1.76 1.96 2.18 2.48 2.92 3.38 3.70
1.57 1.75 1.89 1.92 1.91 1.90 1.92 2.10 1.99 1.98 2.13 2.17 2.12 2.42 2.28 2.07 2.16 2.26 2.40 2.46 2.18 1.81 1.80 1.67 1.56 1.58 1.67 1.73 1.64 1.53 1.36 1.26 1.14 1.08 1.06 1.09 1.16 1.29 1.48 1.72 2.02 2.27 2.53
1.61 1.69 1.77 1.89 1.93 2.00 2.08 2.12 1.99 2.11 2.34 2.23 2.29 2.47 2.34 2.21 2.20 2.21 2.41 2.64 2.61 2.26 1.96 1.80 1.67 1.52 1.55 1.51 1.54 1.46 1.38 1.28 1.11 1.02 0.97 0.93 0.92 0.95 1.04 1.18 1.37 1.55 1.68
1.64 1.59 1.60 1.69 1.70 1.76 1.89 2.02 1.96 2.07 2.30 2.24 2.23 2.32 2.28 2.23 2.43 2.41 2.47 2.62 2.75 2.61 2.09 1.87 1.79 1.50 1.60 1.32 1.40 1.37 1.33 1.28 1.10 0.98 0.93 0.90 0.89 0.90 0.90 0.94 1.04 1.18 1.34
1.61 1.56 1.57 1.58 1.54 1.50 1.57 1.73 1.74 1.93 1.95 1.92 1.88 1.96 1.94 2.15 2.33 2.28 2.37 2.45 2.57 2.67 2.27 2.02 2.09 1.90 1.89 1.68 1.51 1.39 1.22 1.23 1.12 1.06 0.97 0.90 0.87 0.87 0.89 0.88 0.88 0.95 1.06
1.49 1.57 1.63 1.52 1.38 1.41 1.50 1.52 1.59 1.78 1.84 1.82 1.84 1.91 1.82 1.97 2.08 2.11 2.26 2.34 2.50 2.73 2.53 2.30 2.29 2.26 2.16 1.98 1.81 1.62 1.27 1.10 1.13 1.20 1.05 0.94 0.90 0.89 0.93 0.93 0.89 0.86 0.88
1.37 1.44 1.47 1.40 1.36 1.45 1.60 1.69 1.77 1.80 1.71 1.70 1.67 1.63 1.61 1.78 1.81 1.93 2.07 2.07 2.18 2.50 2.55 2.29 2.19 2.44 2.33 2.13 2.16 1.87 1.64 1.58 1.19 1.17 1.10 0.94 0.90 0.87 0.89 0.95 0.96 0.90 0.86
1.37 1.43 1.46 1.55 1.60 1.61 1.58 1.59 1.63 1.72 1.71 1.59 1.44 1.33 1.37 1.52 1.57 1.68 1.71 1.83 1.96 2.13 2.32 2.28 2.19 2.34 2.40 2.29 2.46 2.24 2.03 1.87 1.55 1.26 1.26 1.05 0.97 0.94 0.92 0.92 0.94 0.97 0.99
1.31 1.45 1.60 1.69 1.72 1.65 1.48 1.52 1.59 1.49 1.50 1.43 1.29 1.14 1.07 1.10 1.16 1.29 1.27 1.47 1.71 1.88 1.96 2.10 2.14 2.24 2.46 2.54 2.42 2.40 2.24 2.05 1.90 1.76 1.74 1.34 1.07 0.96 0.96 0.96 0.98 1.03 1.07
1.30 1.44 1.48 1.53 1.52 1.34 1.40 1.31 1.26 1.27 1.29 1.29 1.30 1.26 1.11 1.01 0.98 1.02 1.05 1.11 1.25 1.41 1.61 1.86 1.94 2.04 2.28 2.55 2.58 2.61 2.51 2.29 2.08 1.92 2.06 2.02 1.68 1.41 1.22 1.00 1.00 1.03 1.11
1.36 1.36 1.32 1.35 1.38 1.47 1.35 1.15 1.10 1.09 1.20 1.24 1.28 1.26 1.06 0.94 0.99 0.96 1.01 1.02 1.07 1.10 1.17 1.40 1.54 1.60 1.85 2.17 2.51 2.55 2.62 2.46 2.23 2.20 2.34 2.41 2.47 2.24 1.68 1.33 1.26 1.11 1.14
1.42 1.38 1.26 1.25 1.27 1.27 1.25 1.13 1.11 1.03 1.08 1.16 1.21 1.23 1.23 1.18 1.09 1.11 1.13 1.08 0.99 1.01 1.03 0.99 1.05 1.25 1.42 1.67 2.05 2.24 2.54 2.72 2.57 2.49 2.56 2.64 2.65 2.86 2.37 1.83 1.65 1.40 1.33
1.43 1.47 1.36 1.30 1.29 1.28 1.26 1.12 1.08 1.02 1.10 1.17 1.25 1.25 1.23 1.17 1.18 1.13 1.14 1.14 1.03 0.97 0.95 0.94 0.91 1.01 1.20 1.34 1.63 1.98 2.26 2.46 2.55 2.63 2.69 2.76 2.67 2.81 3.10 2.64 1.96 1.61 1.38
1.59 1.62 1.55 1.49 1.52 1.53 1.56 1.36 1.24 1.10 1.15 1.22 1.35 1.34 1.21 1.08 1.14 1.08 0.99 1.04 1.04 1.03 1.08 1.04 1.02 1.05 1.11 1.27 1.52 1.79 2.04 2.30 2.34 2.41 2.28 2.26 2.28 2.42 2.85 3.05 2.68 2.07 1.61

GEFSMA_prec_meanprecacc_234.txt.gz
Total_Precipitation_Accumulation
2.35 2.38 2.36 2.44 2.24 2.36 2.65 2.72 2.57 2.77 2.85 2.65 2.42 2.15 2.04 1.89 1.77 1.80 1.89 1.79 1.68 1.74 2.03 2.16 1.99 1.83 1.68 1.49 1.32 1.23 1.19 1.10 1.05 0.89 0.74 0.70 0.79 0.77 0.66 0.60 0.54 0.46 0.44
2.72 2.81 2.68 2.70 2.49 2.41 2.59 2.71 2.72 3.27 3.20 3.05 2.55 2.26 2.17 2.09 1.94 1.99 2.05 2.10 1.82 1.67 1.83 2.18 2.32 2.25 2.09 1.84 1.62 1.47 1.35 1.26 1.13 0.88 0.75 0.70 0.77 0.85 0.81 0.74 0.63 0.51 0.40
2.82 2.91 2.92 2.82 2.67 2.55 2.72 2.79 3.00 3.26 3.00 2.86 2.56 2.39 2.28 2.15 1.96 1.95 2.18 2.36 2.10 1.84 1.75 1.90 2.23 2.38 2.40 2.35 2.19 1.88 1.56 1.34 1.21 1.00 0.82 0.74 0.76 0.84 0.82 0.81 0.75 0.57 0.41
2.83 2.97 2.80 2.68 2.83 2.87 3.01 3.22 3.29 3.29 3.16 3.04 2.81 2.44 2.27 2.23 1.80 1.75 1.88 2.01 2.12 1.83 1.95 2.12 2.30 2.36 2.56 2.69 2.69 2.59 2.21 1.71 1.43 1.22 1.00 0.85 0.85 0.89 0.83 0.80 0.75 0.60 0.46
2.69 2.91 2.82 2.86 2.96 3.02 3.09 2.85 3.29 3.27 3.25 3.12 2.59 2.37 2.10 1.99 1.86 1.58 1.58 1.56 1.70 1.72 1.76 1.93 2.15 2.15 2.47 2.95 3.18 3.19 3.00 2.48 1.93 1.61 1.45 1.25 1.14 1.04 0.90 0.84 0.79 0.68 0.53
2.82 3.03 2.95 3.00 3.06 3.17 3.19 3.15 3.36 3.31 3.12 3.07 2.41 2.21 1.98 1.62 1.63 1.58 1.38 1.38 1.46 1.40 1.49 1.77 2.10 1.79 2.16 2.60 2.85 3.14 3.41 3.24 2.70 2.22 2.03 1.89 1.70 1.41 1.13 1.02 0.96 0.88 0.74
2.97 3.25 3.10 3.29 3.24 3.05 3.04 3.17 3.36 3.17 2.92 3.00 2.91 2.34 1.77 1.46 1.47 1.39 1.45 1.55 1.45 1.45 1.66 2.00 2.18 2.02 1.84 1.91 1.96 2.34 3.01 3.50 3.40 2.92 2.58 2.32 2.19 2.00 1.54 1.38 1.30 1.19 1.07
2.91 2.88 3.09 2.95 2.99 3.11 3.05 3.08 3.30 3.09 2.66 2.79 2.97 2.83 2.13 1.85 1.47 1.13 1.38 1.48 1.54 1.71 1.79 1.88 2.19 2.37 2.19 2.30 1.81 1.75 2.40 3.18 3.62 3.58 3.14 2.76 2.54 2.39 2.06 1.92 1.71 1.44 1.27
2.51 2.60 2.67 2.73 3.00 3.01 3.03 3.10 3.06 2.92 2.61 2.55 2.68 2.86 2.36 1.96 1.59 1.17 1.12 1.39 1.75 1.90 1.81 1.91 2.03 2.25 2.39 2.64 2.51 2.13 2.03 2.25 2.94 3.63 3.64 3.29 2.82 2.46 2.43 2.50 2.29 1.83 1.49
2.43 2.43 2.47 2.50 2.57 2.56 2.67 2.45 2.55 2.74 2.84 2.55 2.58 2.50 2.36 2.21 2.10 1.67 1.36 1.35 1.62 1.79 1.90 1.82 1.86 2.05 2.38 2.79 2.89 2.45 2.05 1.83 2.07 2.92 3.54 3.64 3.25 2.83 2.75 2.86 2.99 2.65 2.05
2.47 2.44 2.44 2.40 2.27 2.19 2.32 2.32 2.46 2.49 2.49 2.43 2.45 2.51 2.51 2.42 2.27 2.14 1.87 1.74 1.71 1.53 1.59 1.66 1.74 1.86 2.09 2.51 2.73 2.45 2.34 2.08 1.96 2.12 2.57 3.04 3.20 3.10 2.97 3.07 3.41 3.49 3.11
2.34 2.30 2.27 2.25 2.12 2.11 2.18 2.25 2.34 2.29 2.30 2.38 2.37 2.38 2.48 2.43 2.43 2.46 2.09 1.94 1.82 1.45 1.41 1.38 1.48 1.62 1.94 2.25 2.10 2.13 2.09 1.95 1.83 1.83 1.92 2.25 2.56 2.73 2.85 3.11 3.55 3.95 4.01
1.92 1.99 1.93 2.00 1.98 2.01 2.05 2.14 2.21 2.18 2.26 2.35 2.29 2.31 2.33 2.25 2.34 2.43 2.34 2.04 1.86 1.56 1.58 1.50 1.44 1.58 1.67 2.01 1.96 1.80 1.61 1.56 1.45 1.46 1.45 1.59 1.83 2.03 2.26 2.58 3.02 3.48 3.81
1.60 1.78 1.93 1.95 1.94 1.94 1.97 2.15 2.04 2.04 2.17 2.20 2.16 2.47 2.35 2.14 2.23 2.31 2.44 2.52 2.21 1.85 1.85 1.72 1.63 1.65 1.73 1.80 1.72 1.60 1.44 1.36 1.24 1.18 1.15 1.17 1.24 1.37 1.55 1.79 2.10 2.35 2.62
1.64 1.72 1.79 1.91 1.95 2.03 2.12 2.18 2.05 2.16 2.37 2.27 2.35 2.54 2.40 2.26 2.25 2.26 2.48 2.71 2.67 2.32 2.03 1.87 1.75 1.62 1.65 1.61 1.64 1.54 1.47 1.40 1.23 1.12 1.07 1.01 0.99 1.01 1.10 1.24 1.42 1.60 1.74
1.67 1.62 1.62 1.70 1.72 1.78 1.93 2.07 2.00 2.12 2.34 2.29 2.30 2.42 2.38 2.32 2.50 2.47 2.54 2.70 2.83 2.69 2.18 1.97 1.90 1.62 1.72 1.43 1.52 1.49 1.44 1.40 1.23 1.10 1.03 0.98 0.96 0.96 0.97 1.01 1.11 1.23 1.39
1.63 1.58 1.58 1.59 1.56 1.52 1.60 1.76 1.78 1.97 1.99 1.96 1.92 2.01 2.01 2.24 2.41 2.35 2.43 2.52 2.65 2.76 2.37 2.15 2.24 2.03 2.00 1.80 1.63 1.48 1.29 1.30 1.19 1.13 1.05 0.98 0.94 0.93 0.96 0.94 0.93 0.99 1.11
1.52 1.59 1.64 1.54 1.40 1.42 1.53 1.55 1.64 1.84 1.88 1.85 1.87 1.94 1.86 2.03 2.14 2.17 2.32 2.42 2.58 2.85 2.66 2.43 2.41 2.37 2.26 2.07 1.89 1.67 1.31 1.13 1.16 1.23 1.08 0.97 0.93 0.92 0.97 0.97 0.93 0.91 0.93
1.39 1.46 1.50 1.43 1.39 1.47 1.63 1.73 1.83 1.85 1.74 1.72 1.70 1.65 1.64 1.82 1.85 1.98 2.13 2.13 2.26 2.60 2.65 2.39 2.29 2.51 2.39 2.19 2.22 1.91 1.67 1.60 1.21 1.20 1.12 0.97 0.92 0.90 0.92 0.98 0.99 0.93 0.89
1.39 1.46 1.50 1.60 1.66 1.65 1.60 1.62 1.69 1.78 1.76 1.62 1.46 1.35 1.39 1.54 1.60 1.73 1.78 1.91 2.05 2.19 2.37 2.34 2.24 2.39 2.44 2.33 2.50 2.28 2.07 1.92 1.59 1.29 1.29 1.09 1.01 0.97 0.95 0.95 0.97 0.99 1.02
1.34 1.49 1.65 1.74 1.76 1.69 1.52 1.56 1.62 1.51 1.52 1.44 1.30 1.16 1.09 1.13 1.21 1.34 1.32 1.52 1.77 1.91 1.99 2.13 2.17 2.27 2.49 2.58 2.45 2.43 2.28 2.08 1.93 1.78 1.76 1.37 1.09 0.97 0.96 0.97 0.99 1.04 1.08
1.33 1.47 1.52 1.57 1.55 1.38 1.45 1.35 1.28 1.29 1.30 1.31 1.32 1.29 1.13 1.02 1.01 1.06 1.09 1.15 1.29 1.43 1.63 1.88 1.97 2.07 2.30 2.57 2.60 2.63 2.53 2.31 2.10 1.94 2.07 2.03 1.69 1.42 1.22 1.01 1.01 1.04 1.12
1.41 1.41 1.36 1.39 1.41 1.51 1.39 1.19 1.11 1.10 1.21 1.25 1.29 1.27 1.07 0.95 1.02 0.99 1.04 1.05 1.09 1.12 1.20 1.43 1.56 1.62 1.87 2.18 2.52 2.57 2.64 2.48 2.25 2.22 2.35 2.42 2.48 2.24 1.68 1.33 1.26 1.11 1.14
1.49 1.44 1.31 1.31 1.32 1.31 1.27 1.15 1.12 1.04 1.09 1.17 1.23 1.26 1.26 1.20 1.12 1.14 1.16 1.10 1.01 1.02 1.04 1.00 1.06 1.26 1.43 1.68 2.06 2.25 2.55 2.74 2.60 2.51 2.58 2.65 2.66 2.87 2.37 1.83 1.65 1.40 1.33
1.49 1.52 1.41 1.34 1.32 1.30 1.27 1.14 1.11 1.05 1.13 1.19 1.28 1.28 1.27 1.20 1.21 1.16 1.16 1.16 1.04 0.97 0.96 0.95 0.93 1.03 1.22 1.36 1.65 1.99 2.28 2.48 2.57 2.65 2.71 2.77 2.69 2.82 3.10 2.65 1.96 1.61 1.38
1.64 1.67 1.59 1.51 1.54 1.56 1.58 1.40 1.29 1.15 1.19 1.25 1.38 1.36 1.24 1.11 1.17 1.12 1.02 1.08 1.06 1.06 1.10 1.06 1.04 1.07 1.13 1.28 1.53 1.79 2.04 2.30 2.35 2.42 2.29 2.27 2.28 2.42 2.85 3.05 2.68 2.07 1.62

GEFSMA_prec_meanprecacc_240.txt.gz
Total_Precipitation_Accumulation
2.41 2.44 2.43 2.51 2.32 2.43 2.71 2.80 2.63 2.83 2.91 2.71 2.47 2.20 2.10 1.93 1.83 1.85 1.94 1.85 1.75 1.81 2.11 2.26 2.11 1.94 1.77 1.56 1.39 1.29 1.24 1.16 1.10 0.93 0.78 0.74 0.82 0.79 0.68 0.62 0.57 0.48 0.46
2.78 2.88 2.75 2.80 2.59 2.50 2.65 2.77 2.78 3.34 3.27 3.12 2.60 2.31 2.23 2.15 2.00 2.04 2.10 2.15 1.87 1.72 1.89 2.27 2.42 2.36 2.20 1.93 1.70 1.53 1.40 1.31 1.19 0.94 0.79 0.73 0.81 0.88 0.84 0.77 0.66 0.54 0.42
2.90 3.00 3.02 2.95 2.78 2.65 2.81 2.86 3.07 3.32 3.06 2.92 2.63 2.45 2.32 2.20 2.00 2.00 2.23 2.42 2.15 1.90 1.80 1.97 2.30 2.47 2.50 2.44 2.26 1.97 1.65 1.41 1.27 1.04 0.86 0.78 0.79 0.87 0.85 0.85 0.78 0.60 0.43
2.94 3.11 2.96 2.81 2.93 2.96 3.08 3.29 3.37 3.36 3.23 3.11 2.90 2.53 2.32 2.29 1.85 1.79 1.93 2.07 2.18 1.88 2.01 2.18 2.37 2.42 2.64 2.79 2.80 2.72 2.34 1.80 1.51 1.27 1.04 0.89 0.89 0.92 0.87 0.85 0.81 0.65 0.48
2.81 3.04 2.98 3.00 3.06 3.12 3.16 2.91 3.34 3.33 3.32 3.19 2.66 2.45 2.15 2.05 1.92 1.63 1.63 1.62 1.76 1.79 1.83 2.00 2.21 2.22 2.56 3.05 3.27 3.29 3.11 2.57 2.00 1.67 1.51 1.30 1.18 1.08 0.95 0.90 0.86 0.73 0.58
2.93 3.13 3.08 3.12 3.17 3.27 3.28 3.23 3.44 3.39 3.20 3.14 2.44 2.25 2.02 1.65 1.67 1.62 1.43 1.44 1.52 1.46 1.55 1.84 2.16 1.84 2.21 2.67 2.94 3.23 3.51 3.35 2.79 2.29 2.12 1.96 1.76 1.46 1.18 1.07 1.03 0.95 0.80
3.07 3.35 3.21 3.41 3.34 3.16 3.13 3.24 3.44 3.26 3.01 3.07 2.98 2.40 1.81 1.49 1.51 1.43 1.50 1.62 1.52 1.51 1.70 2.05 2.22 2.08 1.89 1.95 2.01 2.41 3.10 3.60 3.50 3.02 2.67 2.41 2.27 2.07 1.62 1.45 1.37 1.27 1.15
3.00 2.98 3.23 3.10 3.09 3.20 3.13 3.15 3.38 3.16 2.74 2.86 3.04 2.91 2.19 1.91 1.52 1.16 1.42 1.53 1.59 1.76 1.83 1.92 2.25 2.43 2.24 2.36 1.85 1.79 2.46 3.26 3.73 3.70 3.26 2.86 2.63 2.46 2.14 2.01 1.79 1.52 1.36
2.59 2.69 2.76 2.81 3.09 3.08 3.10 3.18 3.14 3.01 2.70 2.62 2.74 2.92 2.44 2.04 1.66 1.21 1.16 1.43 1.80 1.95 1.87 1.97 2.08 2.30 2.44 2.69 2.56 2.17 2.08 2.31 3.02 3.73 3.76 3.41 2.92 2.54 2.50 2.58 2.39 1.94 1.59
2.48 2.49 2.53 2.56 2.63 2.61 2.73 2.51 2.61 2.83 2.93 2.63 2.66 2.58 2.43 2.28 2.17 1.73 1.41 1.41 1.68 1.84 1.96 1.88 1.91 2.10 2.42 2.84 2.95 2.49 2.08 1.87 2.14 3.01 3.65 3.74 3.35 2.93 2.87 2.98 3.11 2.78 2.19
2.53 2.50 2.50 2.46 2.32 2.24 2.37 2.39 2.54 2.56 2.57 2.51 2.54 2.58 2.59 2.50 2.35 2.23 1.97 1.85 1.79 1.58 1.64 1.73 1.81 1.92 2.16 2.58 2.81 2.51 2.40 2.13 2.02 2.17 2.62 3.11 3.28 3.19 3.06 3.16 3.52 3.62 3.24
2.38 2.34 2.33 2.30 2.17 2.16 2.24 2.32 2.41 2.35 2.37 2.46 2.46 2.45 2.57 2.53 2.54 2.57 2.19 2.04 1.91 1.51 1.47 1.45 1.58 1.70 2.03 2.32 2.16 2.20 2.16 2.02 1.89 1.87 1.95 2.29 2.60 2.79 2.92 3.19 3.65 4.05 4.12
1.96 2.03 1.96 2.03 2.02 2.06 2.10 2.20 2.27 2.25 2.34 2.46 2.39 2.40 2.42 2.35 2.44 2.54 2.44 2.12 1.95 1.65 1.68 1.59 1.52 1.64 1.71 2.06 2.02 1.85 1.66 1.62 1.52 1.52 1.50 1.64 1.88 2.09 2.32 2.64 3.11 3.59 3.94
1.64 1.81 1.96 1.98 1.97 1.97 2.00 2.20 2.09 2.10 2.25 2.29 2.24 2.56 2.44 2.22 2.32 2.40 2.54 2.62 2.32 1.97 1.97 1.83 1.70 1.70 1.78 1.85 1.77 1.66 1.48 1.43 1.32 1.26 1.23 1.25 1.31 1.44 1.62 1.86 2.16 2.42 2.71
1.67 1.75 1.81 1.93 1.97 2.05 2.15 2.23 2.09 2.22 2.43 2.33 2.41 2.63 2.51 2.37 2.36 2.34 2.57 2.82 2.79 2.43 2.14 1.98 1.83 1.69 1.71 1.68 1.70 1.61 1.54 1.48 1.31 1.21 1.15 1.10 1.08 1.08 1.17 1.32 1.51 1.69 1.81
1.69 1.64 1.64 1.72 1.75 1.82 1.96 2.11 2.04 2.16 2.40 2.36 2.36 2.48 2.47 2.42 2.62 2.58 2.63 2.79 2.93 2.80 2.29 2.09 2.02 1.73 1.82 1.53 1.62 1.56 1.50 1.46 1.29 1.18 1.13 1.10 1.07 1.04 1.05 1.10 1.21 1.33 1.47
1.65 1.60 1.61 1.62 1.59 1.55 1.63 1.79 1.81 2.00 2.03 2.02 1.98 2.07 2.09 2.33 2.52 2.47 2.56 2.64 2.78 2.90 2.53 2.31 2.39 2.19 2.17 1.95 1.74 1.56 1.35 1.34 1.23 1.18 1.11 1.06 1.03 1.01 1.04 1.02 1.00 1.07 1.17
1.54 1.61 1.67 1.57 1.44 1.46 1.56 1.59 1.67 1.87 1.92 1.90 1.92 2.00 1.92 2.09 2.21 2.24 2.42 2.53 2.73 3.02 2.82 2.57 2.55 2.49 2.38 2.18 1.98 1.74 1.35 1.16 1.19 1.28 1.13 1.02 0.98 0.97 1.01 1.02 0.98 0.95 0.97
1.41 1.47 1.52 1.46 1.43 1.51 1.68 1.77 1.87 1.89 1.78 1.76 1.74 1.70 1.69 1.87 1.91 2.04 2.19 2.20 2.37 2.72 2.76 2.49 2.40 2.62 2.49 2.27 2.29 1.98 1.72 1.65 1.24 1.23 1.16 1.00 0.95 0.92 0.94 1.01 1.02 0.96 0.92
1.42 1.48 1.53 1.63 1.69 1.69 1.64 1.65 1.73 1.82 1.80 1.65 1.50 1.38 1.42 1.59 1.65 1.78 1.82 1.97 2.13 2.26 2.45 2.42 2.32 2.46 2.50 2.38 2.56 2.34 2.14 1.98 1.64 1.32 1.31 1.11 1.02 0.98 0.97 0.97 0.98 1.01 1.03
1.35 1.51 1.67 1.77 1.80 1.71 1.54 1.59 1.65 1.54 1.55 1.47 1.32 1.17 1.11 1.16 1.24 1.37 1.36 1.58 1.84 1.98 2.06 2.18 2.21 2.30 2.52 2.62 2.49 2.48 2.33 2.14 1.97 1.81 1.77 1.38 1.10 0.97 0.97 0.98 1.00 1.05 1.08
1.35 1.49 1.54 1.59 1.57 1.40 1.47 1.38 1.32 1.32 1.33 1.34 1.34 1.30 1.15 1.04 1.03 1.08 1.11 1.18 1.34 1.49 1.68 1.92 2.00 2.10 2.34 2.61 2.65 2.67 2.58 2.37 2.15 1.97 2.09 2.04 1.69 1.42 1.22 1.01 1.01 1.04 1.13
1.43 1.43 1.38 1.40 1.43 1.53 1.42 1.21 1.14 1.13 1.23 1.27 1.31 1.29 1.09 0.96 1.03 1.00 1.06 1.07 1.12 1.17 1.25 1.48 1.61 1.67 1.92 2.24 2.56 2.62 2.70 2.54 2.31 2.25 2.37 2.43 2.49 2.25 1.68 1.33 1.26 1.11 1.14
1.52 1.47 1.33 1.32 1.34 1.33 1.30 1.17 1.14 1.06 1.11 1.19 1.24 1.28 1.28 1.22 1.13 1.16 1.18 1.12 1.02 1.03 1.05 1.01 1.08 1.29 1.47 1.72 2.10 2.29 2.59 2.78 2.63 2.53 2.59 2.65 2.66 2.88 2.38 1.84 1.66 1.41 1.33
1.50 1.55 1.43 1.35 1.33 1.32 1.29 1.15 1.12 1.06 1.14 1.20 1.29 1.29 1.28 1.21 1.22 1.18 1.18 1.18 1.06 0.99 0.97 0.96 0.95 1.06 1.26 1.40 1.68 2.03 2.31 2.52 2.60 2.67 2.73 2.78 2.69 2.83 3.11 2.66 1.97 1.61 1.38
1.66 1.69 1.60 1.52 1.55 1.58 1.60 1.41 1.29 1.15 1.20 1.26 1.39 1.37 1.24 1.12 1.18 1.13 1.03 1.09 1.08 1.08 1.12 1.08 1.07 1.10 1.16 1.31 1.55 1.81 2.07 2.34 2.38 2.45 2.31 2.28 2.30 2.44 2.87 3.07 2.70 2.09 1.63

GEFSMA_prec_meanprecacc_246.txt.gz
Total_Precipitation_Accumulation
2.47 2.52 2.50 2.58 2.37 2.47 2.77 2.85 2.68 2.87 2.95 2.74 2.49 2.23 2.13 1.96 1.85 1.88 1.98 1.89 1.84 1.91 2.17 2.33 2.17 2.00 1.82 1.62 1.44 1.33 1.27 1.19 1.14 0.97 0.81 0.77 0.84 0.82 0.72 0.65 0.59 0.51 0.48
2.84 2.95 2.81 2.86 2.65 2.54 2.70 2.81 2.82 3.38 3.31 3.16 2.64 2.34 2.28 2.21 2.04 2.08 2.15 2.21 1.94 1.80 1.94 2.34 2.50 2.43 2.25 1.98 1.75 1.59 1.46 1.36 1.23 0.98 0.83 0.77 0.84 0.93 0.89 0.81 0.70 0.57 0.46
2.96 3.07 3.11 3.05 2.87 2.72 2.86 2.90 3.11 3.36 3.10 2.96 2.68 2.50 2.38 2.26 2.05 2.06 2.30 2.52 2.23 1.98 1.85 2.03 2.36 2.53 2.55 2.49 2.31 2.01 1.71 1.47 1.32 1.09 0.91 0.82 0.82 0.90 0.88 0.88 0.82 0.66 0.48
3.03 3.20 3.06 2.94 3.06 3.07 3.18 3.36 3.43 3.41 3.28 3.15 2.95 2.60 2.39 2.35 1.89 1.86 2.00 2.16 2.29 2.03 2.10 2.24 2.42 2.47 2.68 2.85 2.85 2.78 2.41 1.87 1.55 1.32 1.09 0.92 0.92 0.95 0.89 0.88 0.84 0.70 0.53
2.89 3.13 3.09 3.14 3.19 3.24 3.28 3.00 3.43 3.41 3.41 3.26 2.70 2.51 2.22 2.13 1.99 1.71 1.73 1.71 1.86 1.91 1.94 2.08 2.26 2.26 2.63 3.12 3.33 3.36 3.20 2.65 2.06 1.74 1.57 1.36 1.23 1.12 0.99 0.94 0.90 0.78 0.62
3.01 3.22 3.19 3.26 3.29 3.38 3.40 3.35 3.56 3.49 3.32 3.22 2.50 2.32 2.11 1.75 1.75 1.72 1.55 1.54 1.62 1.56 1.67 1.95 2.24 1.91 2.29 2.74 3.00 3.29 3.58 3.42 2.86 2.39 2.20 2.04 1.81 1.52 1.23 1.13 1.08 1.00 0.84
3.15 3.45 3.33 3.57 3.50 3.28 3.23 3.33 3.54 3.39 3.13 3.16 3.07 2.54 1.97 1.64 1.66 1.53 1.61 1.75 1.63 1.63 1.84 2.17 2.34 2.22 2.00 2.01 2.07 2.46 3.17 3.68 3.59 3.13 2.76 2.49 2.35 2.14 1.67 1.50 1.41 1.31 1.19
3.08 3.09 3.36 3.25 3.25 3.33 3.24 3.25 3.47 3.27 2.85 2.96 3.17 3.07 2.38 2.11 1.69 1.26 1.52 1.65 1.72 1.92 2.00 2.04 2.38 2.56 2.34 2.45 1.90 1.83 2.51 3.33 3.79 3.78 3.35 2.95 2.70 2.52 2.18 2.05 1.83 1.56 1.41
2.69 2.80 2.88 2.94 3.24 3.18 3.21 3.28 3.22 3.11 2.81 2.74 2.88 3.09 2.64 2.24 1.80 1.31 1.24 1.51 1.87 2.04 1.96 2.05 2.16 2.39 2.52 2.77 2.64 2.21 2.11 2.34 3.06 3.79 3.83 3.50 2.99 2.60 2.55 2.63 2.46 2.00 1.66
2.59 2.62 2.65 2.69 2.76 2.69 2.83 2.58 2.69 2.91 3.03 2.76 2.82 2.73 2.60 2.46 2.33 1.87 1.52 1.50 1.77 1.93 2.04 1.95 1.99 2.17 2.49 2.93 3.04 2.54 2.11 1.90 2.17 3.06 3.71 3.79 3.40 2.97 2.91 3.05 3.19 2.86 2.27
2.65 2.62 2.60 2.56 2.43 2.32 2.45 2.46 2.64 2.65 2.67 2.62 2.66 2.71 2.75 2.69 2.50 2.37 2.10 1.99 1.92 1.67 1.73 1.81 1.88 2.00 2.25 2.68 2.90 2.58 2.47 2.19 2.07 2.22 2.68 3.16 3.33 3.25 3.12 3.23 3.60 3.71 3.33
2.46 2.42 2.39 2.38 2.25 2.24 2.32 2.40 2.48 2.42 2.46 2.58 2.58 2.59 2.73 2.70 2.70 2.72 2.34 2.18 2.02 1.58 1.54 1.53 1.67 1.81 2.13 2.41 2.23 2.26 2.22 2.07 1.93 1.91 1.98 2.32 2.64 2.84 2.98 3.25 3.72 4.14 4.21
1.99 2.07 2.01 2.09 2.08 2.12 2.16 2.27 2.34 2.31 2.42 2.58 2.52 2.54 2.57 2.49 2.56 2.65 2.57 2.25 2.07 1.76 1.78 1.70 1.64 1.79 1.89 2.19 2.11 1.94 1.74 1.68 1.57 1.56 1.54 1.67 1.91 2.13 2.37 2.69 3.18 3.67 4.01
1.66 1.84 1.99 2.02 2.01 2.01 2.05 2.28 2.15 2.16 2.33 2.38 2.33 2.68 2.55 2.31 2.41 2.50 2.66 2.76 2.45 2.10 2.10 1.97 1.84 1.85 1.94 2.03 1.91 1.77 1.56 1.50 1.37 1.31 1.27 1.29 1.35 1.48 1.66 1.90 2.21 2.48 2.77
1.69 1.78 1.86 1.97 2.00 2.09 2.20 2.28 2.15 2.28 2.50 2.39 2.49 2.71 2.59 2.46 2.46 2.45 2.67 2.93 2.93 2.58 2.29 2.12 1.95 1.84 1.84 1.79 1.81 1.69 1.61 1.57 1.38 1.27 1.21 1.15 1.13 1.14 1.23 1.37 1.56 1.73 1.86
1.72 1.67 1.67 1.76 1.78 1.86 2.02 2.16 2.09 2.23 2.48 2.44 2.44 2.56 2.56 2.50 2.68 2.65 2.70 2.91 3.07 2.96 2.44 2.25 2.17 1.87 1.93 1.62 1.71 1.62 1.57 1.53 1.35 1.24 1.18 1.15 1.13 1.11 1.11 1.15 1.25 1.37 1.52
1.68 1.62 1.63 1.66 1.65 1.62 1.70 1.85 1.86 2.06 2.11 2.11 2.05 2.14 2.16 2.39 2.58 2.54 2.63 2.74 2.92 3.07 2.71 2.52 2.58 2.34 2.30 2.05 1.85 1.64 1.42 1.40 1.29 1.26 1.17 1.11 1.08 1.06 1.09 1.06 1.04 1.10 1.21
1.55 1.63 1.70 1.60 1.48 1.52 1.63 1.65 1.72 1.94 1.99 1.96 1.97 2.06 1.97 2.14 2.26 2.29 2.48 2.59 2.81 3.15 2.99 2.75 2.71 2.60 2.48 2.28 2.08 1.83 1.42 1.22 1.26 1.38 1.21 1.08 1.03 1.01 1.04 1.04 0.99 0.97 0.99
1.42 1.49 1.55 1.49 1.47 1.57 1.75 1.85 1.95 1.97 1.84 1.81 1.80 1.75 1.74 1.91 1.95 2.10 2.25 2.26 2.42 2.80 2.84 2.59 2.52 2.73 2.59 2.35 2.37 2.04 1.79 1.72 1.30 1.29 1.23 1.05 0.99 0.94 0.96 1.02 1.03 0.97 0.93
1.43 1.49 1.54 1.64 1.72 1.72 1.69 1.71 1.80 1.88 1.85 1.70 1.54 1.43 1.46 1.62 1.67 1.81 1.87 2.02 2.19 2.32 2.50 2.48 2.39 2.54 2.58 2.46 2.63 2.41 2.20 2.03 1.69 1.38 1.38 1.16 1.06 1.00 0.98 0.98 0.99 1.02 1.04
1.36 1.52 1.68 1.78 1.81 1.74 1.58 1.62 1.69 1.57 1.58 1.51 1.36 1.21 1.14 1.18 1.25 1.38 1.39 1.64 1.89 2.02 2.10 2.23 2.27 2.36 2.58 2.68 2.57 2.54 2.37 2.19 2.03 1.86 1.83 1.44 1.15 1.00 0.99 0.99 1.01 1.05 1.08
1.36 1.51 1.56 1.61 1.59 1.43 1.51 1.40 1.34 1.33 1.35 1.36 1.37 1.33 1.17 1.06 1.04 1.09 1.12 1.20 1.38 1.53 1.72 1.97 2.05 2.15 2.40 2.68 2.73 2.73 2.63 2.42 2.21 2.04 2.18 2.13 1.75 1.45 1.24 1.02 1.01 1.05 1.13
1.46 1.46 1.41 1.44 1.46 1.58 1.45 1.23 1.15 1.14 1.26 1.30 1.34 1.32 1.10 0.98 1.04 1.01 1.07 1.07 1.13 1.19 1.28 1.52 1.65 1.70 1.96 2.29 2.61 2.67 2.76 2.61 2.40 2.35 2.45 2.49 2.53 2.28 1.70 1.34 1.27 1.11 1.14
1.55 1.49 1.35 1.36 1.38 1.36 1.32 1.17 1.14 1.07 1.12 1.21 1.27 1.30 1.29 1.24 1.14 1.17 1.19 1.12 1.03 1.05 1.06 1.03 1.11 1.31 1.49 1.74 2.13 2.33 2.64 2.83 2.69 2.58 2.62 2.69 2.69 2.90 2.40 1.85 1.67 1.41 1.34
1.53 1.57 1.46 1.40 1.37 1.36 1.31 1.16 1.12 1.07 1.16 1.22 1.31 1.31 1.29 1.22 1.23 1.18 1.19 1.18 1.07 1.00 0.98 0.97 0.95 1.06 1.26 1.40 1.70 2.05 2.35 2.56 2.65 2.71 2.76 2.81 2.72 2.86 3.14 2.69 1.99 1.63 1.40
1.70 1.72 1.63 1.56 1.58 1.61 1.62 1.41 1.30 1.17 1.23 1.29 1.41 1.38 1.25 1.13 1.19 1.13 1.04 1.10 1.09 1.09 1.13 1.09 1.08 1.11 1.17 1.32 1.56 1.84 2.11 2.38 2.42 2.49 2.33 2.30 2.32 2.46 2.89 3.10 2.72 2.11 1.64